sat.trackr.live / text

‹ back to catalog

STARLINK-5065

NORAD 55641 · 2023-021P

PAYLOAD ACTIVE UNKNOWN

§ Identity

Operator
Country
US
Launch date
2023-02-17
Launch site
AFWTR
Launch vehicle
Mass (kg)
RCS (m²)

Purposes: comms

External: N2YO · Heavens-Above · Gunter

§ Orbital elements

Epoch: 2026-09-20T14:23:29.694336Z

Period
96.11 min
Inclination
70.0007°
Eccentricity
0.0002887
Mean motion
14.98331391 rev/d
Perigee alt
570.0 km
Apogee alt
574.1 km
Semi-major
6,950.2 km
B*
1.1808e-5
RAAN
53.1533°
Arg perigee
270.9059°
Mean anomaly
89.1769°
Rev number
19,798

§ Raw data

STARLINK-50651 55641U 23021P   26263.59964924  .00000048  00000+0  11808-4 0  99992 55641  70.0007  53.1533 0002887 270.9059  89.1769 14.98331391197980

JSON: /api/v1/satellites/55641 · /tle

For live sub-satellite position, see the globe view (requires WebGL).

§ Visibility from observer

Set your observer location to see the next 7 days of passes ≥ 10°. The values pass through the URL so the page stays shareable.

No JS? Fill the form by hand. The geolocation button needs JavaScript.